sat.trackr.live / text

‹ back to catalog

STARLINK-30764

NORAD 58170 · 2023-166W

PAYLOAD ACTIVE UNKNOWN

§ Identity

Operator
Country
US
Launch date
2023-10-29
Launch site
AFWTR
Launch vehicle
Mass (kg)
RCS (m²)

Purposes: comms

External: N2YO · Heavens-Above · Gunter

§ Orbital elements

Epoch: 2026-09-20T13:49:00.287328Z

Period
93.85 min
Inclination
53.1575°
Eccentricity
0.0000901
Mean motion
15.34396544 rev/d
Perigee alt
462.1 km
Apogee alt
463.3 km
Semi-major
6,840.9 km
B*
4.5739e-5
RAAN
33.2262°
Arg perigee
75.2248°
Mean anomaly
284.8855°
Rev number
16,303

§ Raw data

STARLINK-307641 58170U 23166W   26263.57569777  .00001169  00000+0  45739-4 0  99992 58170  53.1575  33.2262 0000901  75.2248 284.8855 15.34396544163032

JSON: /api/v1/satellites/58170 · /tle

For live sub-satellite position, see the globe view (requires WebGL).

§ Visibility from observer

Set your observer location to see the next 7 days of passes ≥ 10°. The values pass through the URL so the page stays shareable.

No JS? Fill the form by hand. The geolocation button needs JavaScript.